Simultaneous Nadir Overpasses (SNOs) Predictions

Prediction of SNOs between AQUA and NPP Satellite Orbit:

Table of predicted SNOs for the next 14.0 days since TLE Epoch: 4/13/2018
Index Date (AQUA) Time (AQUA) Lat,Lon (AQUA) SZA (AQUA ) Date (NPP) Time (NPP) Lat,Lon (NPP) SZA (NPP ) Distance(km) Time Diff (sec)
1 04/14/2018 22:38:56 -76.07,-100.33 92.36 04/14/2018 22:38:18 -76.08,-100.29 92.33 1.08 38
2 04/14/2018 23:28:05 76.88, 70.03 86.69 04/14/2018 23:28:44 76.88, 70.00 86.66 0.69 39
3 04/17/2018 14:55:17 -76.47, 16.83 93.78 04/17/2018 14:55:05 -76.48, 16.92 93.79 2.52 12
4 04/17/2018 15:44:28 77.17,-173.00 85.37 04/17/2018 15:45:33 77.18,-172.99 85.32 0.60 65
5 04/20/2018 06:22:35 75.69, -37.38 86.21 04/20/2018 06:21:32 75.69, -37.35 86.25 0.84 63
6 04/20/2018 07:11:44 -76.57, 133.05 94.84 04/20/2018 07:11:59 -76.57, 133.00 94.84 1.37 15
7 04/22/2018 22:39:01 75.79, 78.79 85.18 04/22/2018 22:38:25 75.78, 78.70 85.24 2.92 36
8 04/22/2018 23:28:03 -77.00,-109.56 96.25 04/22/2018 23:28:44 -77.00,-109.51 96.30 1.36 41
9 04/25/2018 14:55:19 76.32,-163.67 83.68 04/25/2018 14:55:09 76.32,-163.68 83.69 0.08 10




NCC Satellite Simultaneous Nadir Overpasses (SNOs) Prediction Service
